,,Stat6,,Stat2,,Stat8,,Stat9,,Stat10,,Wind1,,Wind1,
time,status,PA1M_AVG,status,PR1M_SUM,status,RH1M_AVG,status,SR1M_AVG,status,TA1M_AVG,status,W1dAve1m,status,W1sAve1m,
2008-02-02, 07:00:01,VALID,916.136,VALID,0,VALID,91.8823,VALID,53.3708,VALID,19.9292,VALID,8,VALID,0,
2008-02-02, 07:01:00,VALID,916.155,VALID,0,VALID,91.792,VALID,51.8085,VALID,19.9621,VALID,8,VALID,0,
2008-02-02, 07:02:00,VALID,916.174,VALID,0,VALID,91.5962,VALID,49.8727,VALID,19.9878,VALID,8,VALID,0.392223,
2008-02-02, 07:03:00,VALID,916.177,VALID,0,VALID,91.7247,VALID,46.3916,VALID,20.0111,VALID,10,VALID,0.554688,
2008-02-02, 07:04:00,VALID,916.213,VALID,0,VALID,92.1189,VALID,44.6935,VALID,20.019,VALID,11,VALID,0.396875,
2008-02-02, 07:05:00,VALID,916.233,VALID,0,VALID,91.7895,VALID,44.252,VALID,19.996,VALID,11,VALID,0.225694,
2008-02-02, 07:06:00,VALID,916.246,VALID,0,VALID,92.3032,VALID,45.9671,VALID,20.032,VALID,13,VALID,0.120722,
2008-02-02, 07:07:00,VALID,916.253,VALID,0,VALID,91.8442,VALID,48.4463,VALID,20.032,VALID,15,VALID,1.08945,
2008-02-02, 07:08:00,VALID,916.271,VALID,0,VALID,91.1537,VALID,50.1444,VALID,20.0577,VALID,30,VALID,0.916319,
2008-02-02, 07:09:00,VALID,916.29,VALID,0,VALID,90.7798,VALID,53.9141,VALID,20.1131,VALID,37,VALID,0.723772,
2008-02-02, 07:10:00,VALID,916.312,VALID,0,VALID,90.5306,VALID,57.7518,VALID,20.1326,VALID,37,VALID,0.65067,
2008-02-02, 07:11:00,VALID,916.338,VALID,0,VALID,90.1288,VALID,60.7234,VALID,20.1683,VALID,34,VALID,0.611979,
2008-02-02, 07:12:00,VALID,916.346,VALID,0,VALID,90.1466,VALID,62.6253,VALID,20.2207,VALID,33,VALID,0.307231,
2008-02-02, 07:13:00,VALID,916.368,VALID,0,VALID,90.3615,VALID,64.9687,VALID,20.2509,VALID,33,VALID,0.114258,
2008-02-02, 07:14:00,VALID,916.383,VALID,0,VALID,90.6908,VALID,66.9894,VALID,20.2831,VALID,33,VALID,0.169271,
2008-02-02, 07:15:00,VALID,916.408,VALID,0,VALID,90.7201,VALID,70.3346,VALID,20.3028,VALID,33,VALID,0.0142045,
2008-02-02, 07:16:00,VALID,916.424,VALID,0,VALID,91.4042,VALID,73.6798,VALID,20.3515,VALID,33,VALID,0,
2008-02-02, 07:17:00,VALID,916.428,VALID,0,VALID,92.1977,VALID,74.41,VALID,20.4169,VALID,33,VALID,0,
2008-02-02, 07:18:00,VALID,916.44,VALID,0,VALID,92.1354,VALID,74.9704,VALID,20.4327,VALID,33,VALID,0,
2008-02-02, 07:19:00,VALID,916.445,VALID,0,VALID,91.614,VALID,75.1232,VALID,20.4197,VALID,33,VALID,0,
2008-02-02, 07:20:00,VALID,916.478,VALID,0,VALID,90.949,VALID,75.8704,VALID,20.4494,VALID,33,VALID,0,
2008-02-02, 07:21:00,VALID,916.488,VALID,0,VALID,90.5408,VALID,76.8552,VALID,20.4878,VALID,33,VALID,0,
2008-02-02, 07:22:00,VALID,916.488,VALID,0,VALID,89.2399,VALID,77.9081,VALID,20.5111,VALID,33,VALID,0,
2008-02-02, 07:23:00,VALID,916.504,VALID,0,VALID,89.4625,VALID,79.2495,VALID,20.6017,VALID,33,VALID,0,
2008-02-02, 07:24:00,VALID,916.529,VALID,0,VALID,91.1117,VALID,68.7554,VALID,20.7247,VALID,33,VALID,0,
2008-02-02, 07:25:00,VALID,916.546,VALID,0,VALID,91.0634,VALID,36.9673,VALID,20.7669,VALID,22,VALID,0.0535714,
2008-02-02, 07:26:00,VALID,916.549,VALID,0,VALID,89.4599,VALID,36.0333,VALID,20.738,VALID,5,VALID,0,
2008-02-02, 07:27:00,VALID,916.576,VALID,0,VALID,89.3277,VALID,33.9956,VALID,20.8059,VALID,5,VALID,0,
2008-02-02, 07:28:00,VALID,916.591,VALID,0,VALID,89.3658,VALID,49.5331,VALID,20.8778,VALID,10,VALID,0,
2008-02-02, 07:29:00,VALID,916.634,VALID,0,VALID,88.7822,VALID,89.8286,VALID,20.8876,VALID,19,VALID,0,
2008-02-02, 07:30:00,VALID,916.652,VALID,0,VALID,88.7466,VALID,92.2059,VALID,20.8816,VALID,13,VALID,0,
2008-02-02, 07:31:00,VALID,916.662,VALID,0,VALID,89.1573,VALID,80.3023,VALID,20.8778,VALID,19,VALID,0.0176235,
2008-02-02, 07:32:00,VALID,916.682,VALID,0,VALID,89.9787,VALID,27.475,VALID,20.9008,VALID,26,VALID,0,
2008-02-02, 07:33:00,VALID,916.683,VALID,0,VALID,89.4294,VALID,90.6267,VALID,20.8619,VALID,16,VALID,0,
2008-02-02, 07:34:00,VALID,916.701,VALID,0,VALID,89.5566,VALID,101.936,VALID,20.8848,VALID,24,VALID,0,
2008-02-02, 07:35:00,VALID,916.711,VALID,0,VALID,89.8211,VALID,105.706,VALID,20.9035,VALID,23,VALID,0,
2008-02-02, 07:36:00,VALID,916.716,VALID,0,VALID,89.9291,VALID,105.264,VALID,20.943,VALID,17,VALID,0,
2008-02-02, 07:37:00,VALID,916.713,VALID,0,VALID,88.6474,VALID,117.287,VALID,20.9311,VALID,14,VALID,0,
2008-02-02, 07:38:00,VALID,916.72,VALID,0,VALID,87.7026,VALID,122.89,VALID,20.9706,VALID,14,VALID,0,
2008-02-02, 07:39:00,VALID,916.732,VALID,0,VALID,87.2562,VALID,126.422,VALID,21.048,VALID,14,VALID,0,
2008-02-02, 07:40:00,VALID,916.733,VALID,0,VALID,87.5347,VALID,128.952,VALID,21.1394,VALID,14,VALID,0,
2008-02-02, 07:41:00,VALID,916.756,VALID,0,VALID,86.4526,VALID,131.466,VALID,21.1949,VALID,14,VALID,0,
2008-02-02, 07:42:00,VALID,916.771,VALID,0,VALID,85.6349,VALID,136.322,VALID,21.2368,VALID,2,VALID,0,
2008-02-02, 07:43:00,VALID,916.785,VALID,0,VALID,84.7702,VALID,148.446,VALID,21.3109,VALID,2,VALID,0,
2008-02-02, 07:44:00,VALID,916.781,VALID,0,VALID,85.4467,VALID,184.412,VALID,21.4407,VALID,2,VALID,0,
2008-02-02, 07:45:00,VALID,916.788,VALID,0,VALID,85.5841,VALID,153.829,VALID,21.5481,VALID,8,VALID,0,
2008-02-02, 07:46:00,VALID,916.81,VALID,0,VALID,85.4162,VALID,148.701,VALID,21.5871,VALID,11,VALID,0,
2008-02-02, 07:47:00,VALID,916.807,VALID,0,VALID,85.4022,VALID,164.799,VALID,21.6331,VALID,21,VALID,0,
2008-02-02, 07:48:00,VALID,916.823,VALID,0,VALID,85.2763,VALID,267.907,VALID,21.649,VALID,18,VALID,0.0440848,
2008-02-02, 07:49:00,VALID,916.821,VALID,0,VALID,85.4429,VALID,237.222,VALID,21.7532,VALID,19,VALID,0.00236192,
2008-02-02, 07:50:00,VALID,916.839,VALID,0,VALID,84.9203,VALID,280.591,VALID,21.8436,VALID,14,VALID,0,
2008-02-02, 07:51:00,VALID,916.849,VALID,0,VALID,84.2413,VALID,164.069,VALID,21.9185,VALID,12,VALID,0.133176,
2008-02-02, 07:52:00,VALID,916.875,VALID,0,VALID,82.5653,VALID,148.565,VALID,21.925,VALID,18,VALID,0.250977,
2008-02-02, 07:53:00,VALID,916.891,VALID,0,VALID,82.4623,VALID,140.941,VALID,21.9315,VALID,22,VALID,0.148983,
2008-02-02, 07:54:00,VALID,916.894,VALID,0,VALID,82.8132,VALID,130.124,VALID,21.9447,VALID,19,VALID,0.00114329,
2008-02-02, 07:55:00,VALID,916.896,VALID,0,VALID,82.7573,VALID,124.385,VALID,21.9385,VALID,29,VALID,0,
2008-02-02, 07:56:00,VALID,916.91,VALID,0,VALID,83.1375,VALID,119.239,VALID,21.9307,VALID,27,VALID,0,
2008-02-02, 07:57:00,VALID,916.917,VALID,0,VALID,83.004,VALID,117.575,VALID,21.9237,VALID,21,VALID,0,
2008-02-02, 07:58:00,VALID,916.941,VALID,0,VALID,82.6594,VALID,119.409,VALID,21.9123,VALID,18,VALID,0,
2008-02-02, 07:59:00,VALID,916.942,VALID,0,VALID,83.3079,VALID,122.194,VALID,21.9047,VALID,18,VALID,0,
2008-02-02, 08:00:00,VALID,916.949,VALID,0,VALID,82.9887,VALID,126.66,VALID,21.8506,VALID,18,VALID,0.194336,
2008-02-02, 08:01:00,VALID,916.965,VALID,0,VALID,83.4223,VALID,133.86,VALID,21.8152,VALID,8,VALID,0.0448765,
2008-02-02, 08:02:00,VALID,916.994,VALID,0,VALID,83.8509,VALID,146.68,VALID,21.8411,VALID,8,VALID,0,
2008-02-02, 08:03:00,VALID,917.024,VALID,0,VALID,83.0803,VALID,161.929,VALID,21.8512,VALID,6,VALID,0,
2008-02-02, 08:04:00,VALID,917.044,VALID,0,VALID,82.9213,VALID,168.212,VALID,21.8409,VALID,20,VALID,0,
2008-02-02, 08:05:00,VALID,917.038,VALID,0,VALID,82.6098,VALID,173.425,VALID,21.8317,VALID,20,VALID,0.0354421,
2008-02-02, 08:06:00,VALID,917.068,VALID,0,VALID,83.3422,VALID,178.401,VALID,21.8706,VALID,17,VALID,0,
2008-02-02, 08:07:00,VALID,917.08,VALID,0,VALID,84.39,VALID,179.318,VALID,21.987,VALID,13,VALID,0,
2008-02-02, 08:08:00,VALID,917.082,VALID,0,VALID,83.1095,VALID,181.984,VALID,22.0752,VALID,13,VALID,0,
2008-02-02, 08:09:00,VALID,917.082,VALID,0,VALID,83.3104,VALID,184.717,VALID,22.1634,VALID,17,VALID,0,
2008-02-02, 08:10:00,VALID,917.09,VALID,0,VALID,83.7034,VALID,184.157,VALID,22.2245,VALID,29,VALID,0,
2008-02-02, 08:11:00,VALID,917.091,VALID,0,VALID,84.3455,VALID,183.682,VALID,22.2608,VALID,28,VALID,0,
2008-02-02, 08:12:00,VALID,917.108,VALID,0,VALID,83.7224,VALID,183.767,VALID,22.3217,VALID,28,VALID,0,
2008-02-02, 08:13:00,VALID,917.102,VALID,0,VALID,83.3804,VALID,185.804,VALID,22.3725,VALID,25,VALID,0,
2008-02-02, 08:14:00,VALID,917.097,VALID,0,VALID,81.6612,VALID,191.34,VALID,22.2951,VALID,16,VALID,0.11942,
2008-02-02, 08:15:00,VALID,917.081,VALID,0,VALID,82.2448,VALID,198.523,VALID,22.3157,VALID,20,VALID,0.0544872,
2008-02-02, 08:16:00,VALID,917.09,VALID,0,VALID,82.7942,VALID,204.653,VALID,22.3612,VALID,24,VALID,0,
2008-02-02, 08:17:00,VALID,917.086,VALID,0,VALID,82.8768,VALID,209.34,VALID,22.4064,VALID,19,VALID,0,
2008-02-02, 08:18:00,VALID,917.102,VALID,0,VALID,83.3193,VALID,211.174,VALID,22.4486,VALID,29,VALID,0,
2008-02-02, 08:19:00,VALID,917.104,VALID,0,VALID,83.2189,VALID,210.613,VALID,22.5041,VALID,17,VALID,0,
2008-02-02, 08:20:00,VALID,917.107,VALID,0,VALID,82.0744,VALID,210.647,VALID,22.5696,VALID,14,VALID,0,
2008-02-02, 08:21:00,VALID,917.112,VALID,0,VALID,80.8524,VALID,213.025,VALID,22.6605,VALID,17,VALID,0,
2008-02-02, 08:22:00,VALID,917.12,VALID,0,VALID,80.4773,VALID,213.313,VALID,22.654,VALID,14,VALID,0,
2008-02-02, 08:23:00,VALID,917.137,VALID,0,VALID,80.9186,VALID,212.94,VALID,22.6579,VALID,23,VALID,0,
2008-02-02, 08:24:00,VALID,917.146,VALID,0,VALID,80.9618,VALID,213.483,VALID,22.6313,VALID,21,VALID,0.0964177,
2008-02-02, 08:25:00,VALID,917.177,VALID,0,VALID,81.6739,VALID,214.026,VALID,22.6473,VALID,16,VALID,0,
2008-02-02, 08:26:00,VALID,917.173,VALID,0,VALID,81.5722,VALID,213.975,VALID,22.6505,VALID,20,VALID,0.00111607,
2008-02-02, 08:27:00,VALID,917.18,VALID,0,VALID,79.7678,VALID,214.74,VALID,22.631,VALID,15,VALID,0.135099,
2008-02-02, 08:28:00,VALID,917.189,VALID,0,VALID,80.8702,VALID,216.081,VALID,22.6153,VALID,18,VALID,0,
2008-02-02, 08:29:00,VALID,917.19,VALID,0,VALID,79.8212,VALID,218.577,VALID,22.6148,VALID,11,VALID,0.0465116,
2008-02-02, 08:30:00,VALID,917.188,VALID,0,VALID,79.6864,VALID,227.764,VALID,22.6089,VALID,21,VALID,0.0334302,
2008-02-02, 08:31:00,VALID,917.169,VALID,0,VALID,79.9852,VALID,235.049,VALID,22.6576,VALID,24,VALID,0,
2008-02-02, 08:32:00,VALID,917.171,VALID,0,VALID,80.649,VALID,248.752,VALID,22.7385,VALID,20,VALID,0,
2008-02-02, 08:33:00,VALID,917.167,VALID,0,VALID,78.9679,VALID,270.776,VALID,22.8137,VALID,17,VALID,0,
2008-02-02, 08:34:00,VALID,917.175,VALID,0,VALID,78.9107,VALID,284.191,VALID,22.8492,VALID,28,VALID,0.00118886,
2008-02-02, 08:35:00,VALID,917.163,VALID,0,VALID,79.9381,VALID,287.587,VALID,22.9133,VALID,13,VALID,0.0211104,
2008-02-02, 08:36:00,VALID,917.164,VALID,0,VALID,80.6795,VALID,346.732,VALID,22.9679,VALID,22,VALID,0.120924,
2008-02-02, 08:37:00,VALID,917.16,VALID,0,VALID,80.1467,VALID,494.312,VALID,23.0461,VALID,21,VALID,0.206287,
2008-02-02, 08:38:00,VALID,917.153,VALID,0,VALID,79.6317,VALID,304.857,VALID,23.1761,VALID,21,VALID,0,
2008-02-02, 08:39:00,VALID,917.172,VALID,0,VALID,78.912,VALID,261.301,VALID,23.2933,VALID,26,VALID,0.190278,
2008-02-02, 08:40:00,VALID,917.183,VALID,0,VALID,78.4199,VALID,256.733,VALID,23.3901,VALID,17,VALID,0.00639205,
2008-02-02, 08:41:00,VALID,917.191,VALID,0,VALID,77.5628,VALID,261.81,VALID,23.4979,VALID,279,VALID,0,
2008-02-02, 08:42:00,VALID,917.203,VALID,0,VALID,76.9143,VALID,264.358,VALID,23.5074,VALID,339,VALID,0,
2008-02-02, 08:43:00,VALID,917.209,VALID,0,VALID,76.8799,VALID,270.046,VALID,23.6178,VALID,344,VALID,0,
2008-02-02, 08:44:00,VALID,917.21,VALID,0,VALID,77.077,VALID,275.769,VALID,23.7965,VALID,345,VALID,0,
2008-02-02, 08:45:00,VALID,917.23,VALID,0,VALID,76.1996,VALID,283.461,VALID,23.9199,VALID,9,VALID,0,
2008-02-02, 08:46:00,VALID,917.233,VALID,0,VALID,74.3647,VALID,296.927,VALID,23.8487,VALID,359,VALID,0.202035,
2008-02-02, 08:47:00,VALID,917.232,VALID,0,VALID,76.3408,VALID,315.589,VALID,23.7737,VALID,353,VALID,0,
2008-02-02, 08:48:00,VALID,917.234,VALID,0,VALID,75.3629,VALID,315.419,VALID,23.7448,VALID,330,VALID,0,
2008-02-02, 08:49:00,VALID,917.258,VALID,0,VALID,77.044,VALID,344.388,VALID,23.6704,VALID,15,VALID,0,
2008-02-02, 08:50:00,VALID,917.258,VALID,0,VALID,77.6149,VALID,316.981,VALID,23.7058,VALID,39,VALID,0,
2008-02-02, 08:51:00,VALID,917.276,VALID,0,VALID,76.9117,VALID,323.281,VALID,23.735,VALID,29,VALID,0,
2008-02-02, 08:52:00,VALID,917.297,VALID,0,VALID,76.4234,VALID,318.662,VALID,23.8458,VALID,21,VALID,0,
2008-02-02, 08:53:00,VALID,917.297,VALID,0,VALID,75.4532,VALID,317.966,VALID,23.9468,VALID,324,VALID,0,
2008-02-02, 08:54:00,VALID,917.317,VALID,0,VALID,74.8161,VALID,321.753,VALID,23.9855,VALID,2,VALID,0,
2008-02-02, 08:55:00,VALID,917.327,VALID,0,VALID,74.984,VALID,308.287,VALID,24.122,VALID,17,VALID,0,
2008-02-02, 08:56:00,VALID,917.326,VALID,0,VALID,74.5771,VALID,302.463,VALID,24.2974,VALID,17,VALID,0,
2008-02-02, 08:57:00,VALID,917.312,VALID,0,VALID,74.7996,VALID,298.251,VALID,24.4052,VALID,15,VALID,0,
2008-02-02, 08:58:00,VALID,917.312,VALID,0,VALID,73.0092,VALID,343.2,VALID,24.4439,VALID,19,VALID,0,
2008-02-02, 08:59:00,VALID,917.316,VALID,0,VALID,72.9074,VALID,443.556,VALID,24.4221,VALID,17,VALID,0,
2008-02-02, 09:00:00,VALID,917.322,VALID,0,VALID,73.2393,VALID,436.322,VALID,24.4868,VALID,15,VALID,0,
2008-02-02, 09:01:00,VALID,917.312,VALID,0,VALID,71.4769,VALID,373.341,VALID,24.6236,VALID,33,VALID,0,
2008-02-02, 09:02:00,VALID,917.29,VALID,0,VALID,70.7724,VALID,469.503,VALID,24.6525,VALID,355,VALID,0.244141,
2008-02-02, 09:03:00,VALID,917.298,VALID,0,VALID,70.5804,VALID,466.005,VALID,24.4732,VALID,343,VALID,0.140625,
2008-02-02, 09:04:00,VALID,917.31,VALID,0,VALID,72.9176,VALID,349.72,VALID,24.4667,VALID,18,VALID,0,
2008-02-02, 09:05:00,VALID,917.299,VALID,0,VALID,71.9614,VALID,334.675,VALID,24.5358,VALID,304,VALID,0,
2008-02-02, 09:06:00,VALID,917.3,VALID,0,VALID,71.1488,VALID,332.994,VALID,24.5391,VALID,296,VALID,0.159108,
2008-02-02, 09:07:00,VALID,917.323,VALID,0,VALID,71.8253,VALID,333.13,VALID,24.3503,VALID,312,VALID,0.0581782,
2008-02-02, 09:08:00,VALID,917.304,VALID,0,VALID,73.2559,VALID,342.809,VALID,24.0614,VALID,27,VALID,1.10118,
2008-02-02, 09:09:00,VALID,917.322,VALID,0,VALID,74.1231,VALID,375.48,VALID,23.8987,VALID,332,VALID,0.880766,
2008-02-02, 09:10:00,VALID,917.309,VALID,0,VALID,72.9977,VALID,338.428,VALID,23.8246,VALID,4,VALID,1.22724,
2008-02-02, 09:11:00,VALID,917.311,VALID,0,VALID,74.1053,VALID,338.819,VALID,23.5936,VALID,28,VALID,1.18192,
2008-02-02, 09:12:00,VALID,917.304,VALID,0,VALID,75.4062,VALID,360.673,VALID,23.6004,VALID,10,VALID,0.821289,
2008-02-02, 09:13:00,VALID,917.299,VALID,0,VALID,74.3952,VALID,343.301,VALID,23.6689,VALID,340,VALID,1.04084,
2008-02-02, 09:14:00,VALID,917.284,VALID,0,VALID,76.2925,VALID,396.146,VALID,23.7088,VALID,12,VALID,1.30202,
2008-02-02, 09:15:00,VALID,917.287,VALID,0,VALID,76.1411,VALID,360.826,VALID,23.6438,VALID,22,VALID,1.70017,
2008-02-02, 09:16:00,VALID,917.29,VALID,0,VALID,76.6256,VALID,339.837,VALID,23.7218,VALID,22,VALID,0.870206,
2008-02-02, 09:17:00,VALID,917.294,VALID,0,VALID,76.0153,VALID,395.195,VALID,23.8976,VALID,13,VALID,0.845745,
2008-02-02, 09:18:00,VALID,917.269,VALID,0,VALID,75.0272,VALID,483.631,VALID,23.9687,VALID,6,VALID,1.03018,
2008-02-02, 09:19:00,VALID,917.272,VALID,0,VALID,74.0621,VALID,583.631,VALID,23.8813,VALID,26,VALID,1.7783,
2008-02-02, 09:20:00,VALID,917.268,VALID,0,VALID,75.2332,VALID,717.219,VALID,24.06,VALID,24,VALID,1.26023,
2008-02-02, 09:21:00,VALID,917.268,VALID,0,VALID,74.3355,VALID,646.121,VALID,24.3593,VALID,12,VALID,1.19836,
2008-02-02, 09:22:00,VALID,917.256,VALID,0,VALID,73.837,VALID,429.989,VALID,24.5832,VALID,21,VALID,0.901563,
2008-02-02, 09:23:00,VALID,917.26,VALID,0,VALID,71.8418,VALID,541.094,VALID,24.8104,VALID,32,VALID,0.62138,
2008-02-02, 09:24:00,VALID,917.253,VALID,0,VALID,69.6242,VALID,749.279,VALID,24.8812,VALID,308,VALID,1.53924,
2008-02-02, 09:25:00,VALID,917.284,VALID,0,VALID,70.8742,VALID,833.47,VALID,24.9885,VALID,268,VALID,0.895008,
2008-02-02, 09:26:00,VALID,917.277,VALID,0,VALID,70.2269,VALID,575.803,VALID,25.0981,VALID,249,VALID,0.354539,
2008-02-02, 09:27:00,VALID,917.287,VALID,0,VALID,70.0298,VALID,432.145,VALID,25.177,VALID,337,VALID,0.886628,
2008-02-02, 09:28:00,VALID,917.261,VALID,0,VALID,71.7554,VALID,639.108,VALID,24.9944,VALID,20,VALID,1.91629,
2008-02-02, 09:29:00,VALID,917.248,VALID,0,VALID,72.4675,VALID,696.757,VALID,24.9134,VALID,1,VALID,1.56516,
2008-02-02, 09:30:00,VALID,917.286,VALID,0,VALID,71.9652,VALID,686.569,VALID,25.0824,VALID,19,VALID,0.888867,
2008-02-02, 09:31:00,VALID,917.29,VALID,0,VALID,70.0654,VALID,736.73,VALID,25.3558,VALID,252,VALID,0.981889,
2008-02-02, 09:32:00,VALID,917.241,VALID,0,VALID,67.7053,VALID,753.728,VALID,25.3268,VALID,271,VALID,0.744978,
2008-02-02, 09:33:00,VALID,917.264,VALID,0,VALID,68.5344,VALID,753.015,VALID,25.2709,VALID,3,VALID,1.24752,
2008-02-02, 09:34:00,VALID,917.249,VALID,0,VALID,69.0201,VALID,768.484,VALID,25.1903,VALID,25,VALID,0.765625,
2008-02-02, 09:35:00,VALID,917.262,VALID,0,VALID,69.9675,VALID,608.661,VALID,25.5125,VALID,10,VALID,0.509233,
2008-02-02, 09:36:00,VALID,917.243,VALID,0,VALID,67.409,VALID,695.79,VALID,25.9152,VALID,244,VALID,1.10842,
2008-02-02, 09:37:00,VALID,917.208,VALID,0,VALID,65.8602,VALID,752.523,VALID,26.0602,VALID,298,VALID,1.00949,
2008-02-02, 09:38:00,VALID,917.2,VALID,0,VALID,67.3836,VALID,739.957,VALID,26.0433,VALID,36,VALID,0.870739,
2008-02-02, 09:39:00,VALID,917.187,VALID,0,VALID,66.4668,VALID,713.433,VALID,26.2322,VALID,208,VALID,1.01762,
2008-02-02, 09:40:00,VALID,917.19,VALID,0,VALID,66.3612,VALID,680.711,VALID,26.2614,VALID,277,VALID,0.920351,
2008-02-02, 09:41:00,VALID,917.198,VALID,0,VALID,66.8444,VALID,635.643,VALID,26.2228,VALID,247,VALID,0.754616,
2008-02-02, 09:42:00,VALID,917.193,VALID,0,VALID,67.8439,VALID,572.679,VALID,26.3922,VALID,270,VALID,0.291349,
2008-02-02, 09:43:00,VALID,917.185,VALID,0,VALID,66.599,VALID,503.431,VALID,26.5905,VALID,287,VALID,0.522879,
2008-02-02, 09:44:00,VALID,917.176,VALID,0,VALID,64.7895,VALID,432.994,VALID,26.4845,VALID,250,VALID,2.26429,
2008-02-02, 09:45:00,VALID,917.169,VALID,0,VALID,69.6382,VALID,367.16,VALID,26.2049,VALID,342,VALID,1.12946,
2008-02-02, 09:46:00,VALID,917.176,VALID,0,VALID,66.4642,VALID,317.66,VALID,26.107,VALID,304,VALID,0.591992,
2008-02-02, 09:47:00,VALID,917.183,VALID,0,VALID,67.0072,VALID,286.569,VALID,26.2378,VALID,272,VALID,0.416295,
2008-02-02, 09:48:00,VALID,917.164,VALID,0,VALID,67.0377,VALID,278.248,VALID,26.3119,VALID,25,VALID,1.61828,
2008-02-02, 09:49:00,VALID,917.181,VALID,0,VALID,66.8724,VALID,293.463,VALID,26.2248,VALID,357,VALID,0.916903,
2008-02-02, 09:50:00,VALID,917.182,VALID,0,VALID,64.8773,VALID,321.379,VALID,26.413,VALID,248,VALID,1.27274,
2008-02-02, 09:51:00,VALID,917.178,VALID,0,VALID,64.7933,VALID,333.724,VALID,26.5008,VALID,247,VALID,1.22184,
2008-02-02, 09:52:00,VALID,917.165,VALID,0,VALID,66.7478,VALID,356.105,VALID,26.4982,VALID,291,VALID,0.954613,
2008-02-02, 09:53:00,VALID,917.174,VALID,0,VALID,68.0932,VALID,369.893,VALID,26.5206,VALID,335,VALID,0.495313,
2008-02-02, 09:54:00,VALID,917.132,VALID,0,VALID,65.7025,VALID,370.301,VALID,26.638,VALID,6,VALID,1.05069,
2008-02-02, 09:55:00,VALID,917.169,VALID,0,VALID,65.8284,VALID,376.499,VALID,26.7158,VALID,265,VALID,1.28105,
2008-02-02, 09:56:00,VALID,917.188,VALID,0,VALID,65.9937,VALID,390.627,VALID,26.7486,VALID,288,VALID,0.43423,
2008-02-02, 09:57:00,VALID,917.178,VALID,0,VALID,66.5367,VALID,414.095,VALID,26.7743,VALID,360,VALID,0.776228,
2008-02-02, 09:58:00,VALID,917.187,VALID,0,VALID,66.4655,VALID,431.789,VALID,26.6026,VALID,318,VALID,0.974085,
2008-02-02, 09:59:00,VALID,917.187,VALID,0,VALID,67.4574,VALID,443.794,VALID,26.7493,VALID,264,VALID,0.393864,
2008-02-02, 10:00:00,VALID,917.201,VALID,0,VALID,65.8844,VALID,450.62,VALID,26.9968,VALID,112,VALID,0.361235,
2008-02-02, 10:01:00,VALID,917.202,VALID,0,VALID,64.7806,VALID,453.966,VALID,27.1428,VALID,43,VALID,0.741257,
2008-02-02, 10:02:00,VALID,917.211,VALID,0,VALID,63.378,VALID,456.326,VALID,27.1861,VALID,289,VALID,0.426153,
2008-02-02, 10:03:00,VALID,917.2,VALID,0,VALID,63.5446,VALID,454.305,VALID,27.3809,VALID,353,VALID,0.62064,
2008-02-02, 10:04:00,VALID,917.211,VALID,0,VALID,63.4429,VALID,451.333,VALID,27.4973,VALID,267,VALID,0.285792,
2008-02-02, 10:05:00,VALID,917.224,VALID,0,VALID,63.345,VALID,453.575,VALID,27.5953,VALID,193,VALID,0.5496,
2008-02-02, 10:06:00,VALID,917.208,VALID,0,VALID,62.6952,VALID,459.552,VALID,27.6473,VALID,178,VALID,0.563834,
2008-02-02, 10:07:00,VALID,917.201,VALID,0,VALID,61.3155,VALID,470.946,VALID,27.648,VALID,252,VALID,0.736662,
2008-02-02, 10:08:00,VALID,917.214,VALID,0,VALID,61.7288,VALID,481.627,VALID,27.5212,VALID,262,VALID,1.25052,
2008-02-02, 10:09:00,VALID,917.203,VALID,0,VALID,61.9704,VALID,488.233,VALID,27.0463,VALID,280,VALID,1.69371,
2008-02-02, 10:10:00,VALID,917.185,VALID,0,VALID,65.5169,VALID,494.397,VALID,26.455,VALID,10,VALID,1.39787,
2008-02-02, 10:11:00,VALID,917.18,VALID,0,VALID,66.9907,VALID,504.959,VALID,26.2593,VALID,26,VALID,1.38728,
2008-02-02, 10:12:00,VALID,917.199,VALID,0,VALID,67.7473,VALID,513.891,VALID,26.3243,VALID,289,VALID,0.484557,
2008-02-02, 10:13:00,VALID,917.2,VALID,0,VALID,67.039,VALID,519.155,VALID,26.4937,VALID,206,VALID,0.293341,
2008-02-02, 10:14:00,VALID,917.198,VALID,0,VALID,66.6613,VALID,516.981,VALID,26.7893,VALID,158,VALID,0.271875,
2008-02-02, 10:15:00,VALID,917.201,VALID,0,VALID,64.6433,VALID,531.008,VALID,26.965,VALID,38,VALID,1.31559,
2008-02-02, 10:16:00,VALID,917.18,VALID,0,VALID,64.5377,VALID,524.368,VALID,26.7838,VALID,23,VALID,1.859,
2008-02-02, 10:17:00,VALID,917.206,VALID,0,VALID,66.2926,VALID,559.247,VALID,26.5949,VALID,344,VALID,0.794922,
2008-02-02, 10:18:00,VALID,917.21,VALID,0,VALID,66.1323,VALID,564.748,VALID,26.7503,VALID,53,VALID,0.817107,
2008-02-02, 10:19:00,VALID,917.206,VALID,0,VALID,65.3071,VALID,617.032,VALID,26.8124,VALID,21,VALID,0.772727,
2008-02-02, 10:20:00,VALID,917.209,VALID,0,VALID,66.3091,VALID,694.89,VALID,26.8652,VALID,332,VALID,0.956287,
2008-02-02, 10:21:00,VALID,917.196,VALID,0,VALID,63.7176,VALID,779.641,VALID,27.0795,VALID,342,VALID,1.01989,
2008-02-02, 10:22:00,VALID,917.193,VALID,0,VALID,64.8366,VALID,617.915,VALID,27.0336,VALID,31,VALID,1.33542,
2008-02-02, 10:23:00,VALID,917.21,VALID,0,VALID,63.9007,VALID,641.587,VALID,27.0469,VALID,259,VALID,0.443314,
2008-02-02, 10:24:00,VALID,917.221,VALID,0,VALID,64.4729,VALID,658.992,VALID,27.1976,VALID,230,VALID,0.55907,
2008-02-02, 10:25:00,VALID,917.222,VALID,0,VALID,64.0952,VALID,591.425,VALID,27.2844,VALID,318,VALID,0.302591,
2008-02-02, 10:26:00,VALID,917.209,VALID,0,VALID,64.1143,VALID,606.521,VALID,27.3823,VALID,58,VALID,0.325284,
2008-02-02, 10:27:00,VALID,917.199,VALID,0,VALID,62.1624,VALID,685.126,VALID,27.4087,VALID,355,VALID,0.797619,
2008-02-02, 10:28:00,VALID,917.179,VALID,0,VALID,62.39,VALID,611.972,VALID,27.0831,VALID,336,VALID,1.35423,
2008-02-02, 10:29:00,VALID,917.192,VALID,0,VALID,64.1842,VALID,706.453,VALID,26.8196,VALID,252,VALID,1.24123,
2008-02-02, 10:30:00,VALID,917.177,VALID,0,VALID,64.848,VALID,766.209,VALID,26.7874,VALID,284,VALID,0.840554,
2008-02-02, 10:31:00,VALID,917.164,VALID,0,VALID,66.023,VALID,681.118,VALID,26.7647,VALID,280,VALID,0.602121,
2008-02-02, 10:32:00,VALID,917.178,VALID,0,VALID,65.3795,VALID,632.485,VALID,26.8948,VALID,340,VALID,0.4375,
2008-02-02, 10:33:00,VALID,917.165,VALID,0,VALID,66.9894,VALID,663.764,VALID,27.1394,VALID,305,VALID,0.68859,
2008-02-02, 10:34:00,VALID,917.15,VALID,0,VALID,65.3554,VALID,642.911,VALID,27.3349,VALID,16,VALID,0.665698,
2008-02-02, 10:35:00,VALID,917.15,VALID,0,VALID,65.2727,VALID,628.257,VALID,27.3931,VALID,12,VALID,1.17001,
2008-02-02, 10:36:00,VALID,917.14,VALID,0,VALID,63.8256,VALID,617.27,VALID,27.5232,VALID,341,VALID,0.677083,
2008-02-02, 10:37:00,VALID,917.135,VALID,0,VALID,62.5655,VALID,633.164,VALID,27.4351,VALID,350,VALID,1.32632,
2008-02-02, 10:38:00,VALID,917.124,VALID,0,VALID,63.0118,VALID,596.706,VALID,27.0093,VALID,35,VALID,0.9375,
2008-02-02, 10:39:00,VALID,917.128,VALID,0,VALID,65.0019,VALID,689.676,VALID,27.1137,VALID,342,VALID,0.844752,